#timestamp,LO_Frequency,Hit,StdDev 
1506031215.7,286046996.7,N
1506031235.5,286046997.0,N
1506031255.3,286046999.2,N
1506031275.2,286046995.4,N
1506031295.9,286046995.4,N
1506031315.7,286046997.2,N
1506031335.6,286046995.4,N
1506031355.4,286046994.4,Y
1506031375.2,286046997.0,P
1506031395.1,286047002.9,P
1506031396.0,286047002.9,N
1506031415.8,286047009.0,Y
1506031435.6,286047010.2,P
1506031455.5,286047010.5,N
1506031475.3,286047011.1,N
1506031495.1,286047011.3,N
1506031515.9,286047014.5,Y
1506031535.7,286047007.3,P
1506031555.5,286047007.8,P
1506031575.4,286047009.6,P
1506031595.2,286047008.7,Y
1506031615.0,286047001.1,P
1506031615.9,286047001.1,N
1506031635.8,286047001.0,N
1506031655.6,286047002.2,N
1506031675.4,286046998.1,N
1506031695.3,286047000.6,N
1506031715.1,286046999.7,N
1506031716.0,286046999.7,N
1506031735.8,286047002.5,N
1506031755.7,286047003.7,N
1506031775.5,286047003.8,N
1506031795.3,286047003.0,N
1506031815.1,286047004.9,N
1506031835.9,286047002.5,N
1506031855.7,286047004.3,N
1506031875.5,286047004.0,N
1506031895.4,286047005.4,N
1506031915.2,286047005.5,N
1506031935.0,286047008.0,Y
1506031935.9,286047008.0,P
1506031955.8,286047004.2,N
1506031975.6,286047004.6,N
1506031995.4,286047007.1,Y
1506032015.3,286047002.1,P
1506032035.1,286047007.6,P
1506032055.8,286047004.3,N
1506032075.7,286047004.5,N
1506032095.5,286047001.9,N
1506032115.3,286047003.0,N
1506032135.2,286047003.2,N
1506032155.9,286047004.4,N
1506032175.7,286047002.0,N
1506032195.6,286046998.5,N
1506032215.4,286046997.3,N
1506032235.2,286046995.3,N
1506032255.1,286046995.6,N
1506032256.0,286046995.6,N
1506032275.8,286046994.3,N
1506032295.6,286046990.5,N
1506032315.4,286046990.9,N
1506032335.3,286046989.2,N
1506032355.1,286046988.9,N
1506032375.8,286046988.6,N
1506032395.7,286046989.9,N
1506032415.5,286046987.2,N
1506032435.3,286046989.9,N
1506032455.2,286046987.3,N
1506032475.9,286046987.5,N
1506032495.7,286046988.3,N
1506032515.6,286046985.9,N
1506032535.4,286046986.3,N
1506032555.2,286046986.3,N
1506032575.0,286046986.2,N
1506032576.0,286046986.2,N
1506032595.8,286046984.1,N
1506032615.6,286046983.8,N
1506032635.4,286046986.8,N
1506032655.3,286046984.9,N
1506032675.1,286046984.7,N
1506032695.8,286046985.1,N
1506032715.7,286046983.4,Y
1506032735.5,286046990.1,P
1506032755.3,286046992.3,P
1506032775.2,286046992.9,P
1506032795.9,286046989.4,Y
1506032815.7,286046996.5,P
1506032835.6,286046997.2,N
1506032855.4,286046999.4,N
1506032875.2,286046996.8,N
1506032895.1,286046997.0,N
1506032896.0,286046997.0,N
1506032915.8,286046997.7,N
1506032935.6,286046995.1,N
1506032955.5,286046995.0,N
1506032975.3,286046997.7,N
1506032995.1,286046998.0,N
1506033015.9,286046995.4,N
1506033035.7,286046997.6,N
1506033055.5,286046997.7,N
1506033075.3,286046997.8,N
1506033095.2,286046998.0,N
1506033115.0,286046998.0,N
1506033115.9,286046998.0,N
1506033135.7,286046995.7,N
1506033155.6,286046995.6,N
1506033175.4,286046997.9,N
1506033195.2,286046995.1,Y
1506033215.1,286046999.1,P
1506033216.0,286046999.1,N
1506033235.8,286046999.5,N
1506033255.6,286046999.1,N
1506033275.5,286046999.5,N
1506033295.3,286046999.6,N
1506033315.1,286047004.0,Y
1506033335.9,286047007.5,P
1506033355.7,286047004.8,N
1506033375.5,286047008.3,N
1506033395.4,286047007.9,N
1506033415.2,286047011.4,Y
1506033435.0,286047002.9,P
1506033435.9,286047002.9,N
1506033455.8,286047007.6,P
1506033475.6,286047006.5,Y
1506033495.4,286047003.4,P
1506033515.3,286047003.0,P
1506033535.1,286047006.2,P
1506033555.8,286047006.4,Y
1506033575.7,286047003.9,P
1506033595.5,286047002.9,P
1506033615.3,286047005.4,P
1506033635.2,286046999.0,N
1506033655.9,286047000.2,N
1506033675.7,286047005.2,N
1506033695.6,286047007.5,Y
1506033715.4,286047004.8,P
1506033735.2,286047009.6,P
1506033755.1,286047008.3,N
1506033756.0,286047008.3,Y
1506033775.8,286047002.1,P
1506033795.6,286047002.1,N
1506033815.5,286047001.3,N
1506033835.3,286047001.4,N
1506033855.1,286047005.5,N
1506033875.9,286047007.2,Y
1506033895.7,286047004.0,P
1506033915.5,286046999.8,N
1506033935.4,286046998.8,N
1506033955.2,286046998.3,N
1506033975.0,286046998.4,N
1506033975.9,286046998.4,N
1506033995.8,286047001.2,N
1506034015.6,286046999.8,N
1506034035.4,286047002.7,N
1506034055.2,286047005.3,N
1506034075.1,286047004.9,N
1506034076.0,286047004.9,N
1506034095.8,286047004.7,N
1506034115.6,286047005.4,N
1506034135.5,286047009.2,Y
1506034155.3,286047006.0,P
1506034175.1,286047004.9,N
1506034195.9,286047010.5,P
1506034215.7,286047012.4,Y
1506034235.5,286047004.0,P
1506034255.4,286047002.7,N
1506034275.2,286047001.7,N
1506034295.0,286047005.9,Y
1506034295.9,286047005.9,P
1506034315.8,286047001.7,N
1506034335.6,286047004.2,N
1506034355.4,286047002.7,N
1506034375.3,286047002.3,N
1506034395.1,286047000.4,N
1506034415.8,286047005.8,Y
1506034435.7,286046998.9,P
1506034455.5,286046996.3,N
1506034475.3,286046992.9,N
1506034495.2,286046989.5,N
1506034515.9,286046985.9,Y
1506034535.7,286046989.6,P
1506034555.6,286046986.7,P
1506034575.4,286046983.5,P
1506034595.2,286046979.3,Y
1506034615.1,286046991.6,P
1506034616.0,286046991.6,P
1506034635.8,286046988.3,P
1506034655.6,286046986.8,Y
1506034675.5,286046996.0,P
1506034695.3,286046997.9,N
1506034715.1,286046995.5,N
1506034735.9,286046997.6,N
1506034755.7,286046997.2,N
1506034775.5,286046995.3,N
1506034795.4,286046995.2,N
